Regional Weather Roundup
Issued by NWS Sterling, VA

Home | Current Version | Previous Version | Graphics & Text | Print | Product List | Glossary On
Versions: 1 2 3 4 5 6 7 8 9 10 11 12 13 14 15 16 17 18 19 20 21 22 23 24 25 26 27 28 29 30 31 32 33 34 35 36 37 38 39 40 41 42 43 44 45 46 47 48 49 50
389
ASUS41 KLWX 112311
RWRLWX

REGIONAL WEATHER ROUNDUP
NATIONAL WEATHER SERVICE BALTIMORE MD/WASHINGTON DC
600 PM EST MON DEC 11 2017

Note: "FAIR" indicates few or no clouds below 12,000 feet
with no significant weather and/or obstructions to visibility.
 TC=TEMPERATURE CELSIUS

 * =Non NWS site. Station does not report precipitation (e.g. rain,
    snow, etc.), thunder, or fog.

DCZ001-MDZ009-015-VAZ040>042-051-053>054-120000-
WASHINGTON METRO

CITY           SKY/WX    TMP DP  RH WIND       PRES   REMARKS
WASHINGTON NAT PTCLDY    44  28  53 S8        29.97F
DULLES         PTCLDY    40  26  57 SE7       29.94F
ANDREWS AFB    CLEAR     39  25  58 SE6       29.96F
FT BELVOIR     PTCLDY    40  28  61 SE6       29.96F
QUANTICO       CLEAR    N/A N/A N/A SE13      29.97F
COLLEGE PARK*  CLEAR     41  25  52 SE5       29.96F
LEESBURG*      CLEAR     45  28  53 S8        29.94F
MANASSAS*      CLEAR     36  26  67 SE7       29.95F
GAITHERSBURG*  CLEAR     39  24  55 SE3       29.94F

$$

MDZ006>007-011-014-120000-
BALTIMORE METRO

CITY           SKY/WX    TMP DP  RH WIND       PRES   REMARKS
BWI AIRPORT    PTCLDY    40  27  59 SE5       29.97F
MD SCIENCE CTR   N/A     43  28  55 MISG      29.96F
ANNAPOLIS      CLEAR     42  31  64 S13       29.98F
FORT MEADE*    CLEAR     37  28  70 SE7       29.98F

$$

MDZ012-015-019>023-120000-
MARYLAND EASTERN SHORE

CITY           SKY/WX    TMP DP  RH WIND       PRES   REMARKS
OCEAN CITY     CLEAR     33  29  85 CALM      30.04F
SALISBURY      CLEAR     32  29  88 CALM      30.02F
BAY BRIDGE AP* CLEAR     41  28  60 S8        29.99F
CAMBRIDGE*     CLEAR     34  30  86 SE5       30.02S
EASTON*        CLEAR     39  27  60 S6        30.04F

$$

MDZ017>025-120000-
SOUTHERN MARYLAND

CITY           SKY/WX    TMP DP  RH WIND       PRES   REMARKS
PATUXENT RIVER PTCLDY    41  31  67 S6        30.00F
ST INIGOES     CLEAR     41  31  67 E6        29.99F
LEONARDTOWN*   CLEAR     37  30  75 SE6       30.01S

$$

MDZ003>005-120000-
NORTH CENTRAL MARYLAND

CITY           SKY/WX    TMP DP  RH WIND       PRES   REMARKS
FREDERICK*     CLEAR     41  23  48 CALM      29.97F
HAGERSTOWN APT MOCLDY    42  24  49 SE7       29.90F
WESTMINSTER*   MOCLDY    39  27  60 SE3       29.93F

$$

MDZ501>502-120000-
WESTERN MARYLAND

CITY           SKY/WX    TMP DP  RH WIND       PRES   REMARKS
OAKLAND*       MOCLDY    32  18  55 S12       29.77S WCI  23
CUMBERLAND*    MOCLDY    43  23  45 CALM      29.91F

$$

VAZ025>031-120000-
SHENANDOAH VALLEY

CITY           SKY/WX    TMP DP  RH WIND       PRES   REMARKS
WINCHESTER*    PTCLDY    41  25  52 S3        29.90S
FRONT ROYAL*   FAIR      43  27  52 CALM      29.90R
LURAY*         CLEAR     37  28  70 S3        29.90S
NEW MARKET*    CLEAR     35  27  74 CALM      29.88S
STAUNTON*      CLEAR     41  24  51 S6        29.91F
WAYNESBORO*    CLEAR     39  24  56 S5        29.90S

$$

WVZ021-048>050-054>055-120000-
EASTERN WEST VIRGINIA PANHANDLE

CITY           SKY/WX    TMP DP  RH WIND       PRES   REMARKS
MARTINSBURG    PTCLDY    42  23  46 SE3       29.91S
PETERSBURG*    CLOUDY    37  24  59 W5        29.88R

$$

VAZ036>039-050-120000-
CENTRAL FOOTHILLS

CITY           SKY/WX    TMP DP  RH WIND       PRES   REMARKS
CHARLOTTESVILL CLEAR     41  25  53 S7        29.93F
CULPEPER*      FAIR      37  25  64 CALM      29.95S
ORANGE*        CLEAR     41  27  56 CALM      29.94F
GORDONSVILLE*  CLEAR     40  27  59 SW3       29.95S
WARRENTON*     CLEAR     42  22  43 S3        29.94R

$$

VAZ055>057-120000-
NORTH AND CENTRAL PIEDMONT

CITY           SKY/WX    TMP DP  RH WIND       PRES   REMARKS
FREDERICKSBRG* CLEAR     41  29  62 S7        29.96S
STAFFORD*      CLEAR     41  26  54 S3        30.00S

$$

NCZ024-NYZ072-PAZ021-071-VAZ022-071-120000-
OTHER REGIONAL OBSERVATIONS

CITY           SKY/WX    TMP DP  RH WIND       PRES   REMARKS
NEW YORK CITY  CLOUDY    38  21  50 VRB3      30.02S
PHILADELPHIA   PTCLDY    37  22  54 SE5       30.02S
PITTSBURGH     CLOUDY    38  21  50 CALM      29.84F
ROANOKE        CLEAR     45  28  51 SE8       29.93F
RICHMOND       PTCLDY    40  30  67 S5        29.98F
RALEIGH        CLEAR     44  32  62 CALM      30.01R

$$

ANZ530>537-120000-
MARINE OBSERVATIONS

STATION/POSITION TIME  TEMP    WIND        PRES
                       AIR SEA DIR/SP/G
                 (UTC) (F)     (DEG/KT/KT) (MB)
THOMAS PT LIGHT  2300   43 48  150/ 18/ 19   N/A
BALT KEY BRIDGE  2236   43     150/ 12/ 13 1014.9F
COVE POINT       2236   44     180/ 12/ 14 1016.6F
LEWISETTA        2236   41 45  170/  8/  9 1015.8F
SOLOMONS ISLAND  2236   42 49  160/  9/ 12 1015.8S
PINEY POINT      2248          180/ 12/ 14   N/A

$$





USA.gov is the U.S. government's official web portal to all federal, state and local government web resources and services.